Location: Atherton
(17.2661°S, 145.4859°E)
Time: 22:59:22
(UTC+10:00)

BlueWalker 3 - Pass Details

Date: 21 April 2026
Orbit: 447 x 458 km, 53.2° (Epoch: 11 May)

Event Time Altitude Azimuth Distance (km) Brightness Sun altitude
Exits shadow 04:58:45 16° 171° (S) 1,240 3.9 -21.9°
Maximum altitude 05:00:30 24° 130° (SE) 987 3.9 -21.5°
Drops below altitude 10° 05:03:25 10° 74° (ENE) 1,570 5.6 -20.8°
Sets 05:05:48 0° 60° (ENE) 2,434 6.6 -20.2°
